When you browse on this site, cookies collect data to enhance your experience and personalize the content and advertising you see.
Visit our Privacy Policy to learn more. By continuing to use the site, you agree to this use of cookies and data.
  • In France
  • List of Countries
  • For 7 days
  • Water Temperature
  • Satellite Maps
  • Weather Map
  • Weather Widgets
  • user-avatar
    Login

    Hourly Weather Gizewo

    Today, 9 December, Sunday

    Time Temperature Precipitation Wind Pressure Humidity
    00:00 +1°C° 0 mm 6 mps 731 mmHg 85%
    01:00 -1°C° 0 mm 6 mps 730 mmHg 86%
    02:00 +1°C° 0 mm 6 mps 730 mmHg 86%
    03:00 +1°C° 0 mm 6 mps 730 mmHg 87%
    04:00 +1°C° 0 mm 6 mps 729 mmHg 87%
    05:00 +1°C° 0 mm 6 mps 729 mmHg 88%
    06:00 +1°C° 0 mm 6 mps 729 mmHg 89%
    07:00 0°C° 0 mm 5 mps 728 mmHg 91%
    08:00 0°C° 0 mm 5 mps 728 mmHg 89%
    09:00 -1°C° 0 mm 6 mps 727 mmHg 88%
    10:00 0°C° 0 mm 7 mps 727 mmHg 87%
    11:00 0°C° 0.1 mm 7 mps 726 mmHg 86%
    12:00 0°C° 0.1 mm 7 mps 726 mmHg 85%
    13:00 +2°C° 0 mm 6 mps 725 mmHg 85%
    14:00 +2°C° 0.1 mm 5 mps 725 mmHg 87%
    15:00 +2°C° 0.1 mm 5 mps 725 mmHg 89%
    16:00 +3°C° 0.1 mm 4 mps 725 mmHg 91%
    17:00 +3°C° 0.2 mm 4 mps 726 mmHg 92%
    18:00 +3°C° 0.2 mm 4 mps 726 mmHg 92%
    19:00 +3°C° 0.2 mm 4 mps 726 mmHg 93%
    20:00 +3°C° 0.2 mm 4 mps 726 mmHg 92%
    21:00 +3°C° 0.2 mm 4 mps 726 mmHg 92%
    22:00 +3°C° 0.2 mm 4 mps 727 mmHg 91%
    23:00 +3°C° 0.1 mm 4 mps 727 mmHg 92%

    Tomorrow, 10 December, Monday

    Time Temperature Precipitation Wind Pressure Humidity
    00:00 +3°C° 0.1 mm 4 mps 727 mmHg 93%
    01:00 +2°C° 0.1 mm 3 mps 727 mmHg 94%
    02:00 +2°C° 0.1 mm 3 mps 727 mmHg 95%
    03:00 +2°C° 0.1 mm 3 mps 727 mmHg 95%
    04:00 +2°C° 0.1 mm 3 mps 728 mmHg 96%
    05:00 +2°C° 0.1 mm 3 mps 728 mmHg 96%
    06:00 +2°C° 0.1 mm 3 mps 728 mmHg 95%
    07:00 +2°C° 0.1 mm 3 mps 728 mmHg 95%
    08:00 +1°C° 0.3 mm 4 mps 729 mmHg 89%
    09:00 +1°C° 0.3 mm 5 mps 729 mmHg 84%
    10:00 +1°C° 0.3 mm 5 mps 730 mmHg 79%
    11:00 +1°C° 0.1 mm 5 mps 730 mmHg 78%
    12:00 +2°C° 0.1 mm 5 mps 731 mmHg 77%
    13:00 +3°C° 0.1 mm 4 mps 731 mmHg 76%
    14:00 +1°C° 0 mm 4 mps 732 mmHg 79%
    15:00 +1°C° 0 mm 4 mps 732 mmHg 81%
    16:00 +1°C° 0 mm 3 mps 733 mmHg 84%
    17:00 +1°C° 0 mm 3 mps 733 mmHg 83%
    18:00 0°C° 0 mm 4 mps 733 mmHg 83%
    19:00 -1°C° 0 mm 4 mps 734 mmHg 82%
    20:00 0°C° 0 mm 3 mps 734 mmHg 84%
    21:00 -1°C° 0 mm 3 mps 734 mmHg 85%
    22:00 -1°C° 0 mm 3 mps 734 mmHg 86%
    23:00 -1°C° 0 mm 3 mps 735 mmHg 87%

    Day after tomorrow, 11 December, Tuesday

    Time Temperature Precipitation Wind Pressure Humidity
    00:00 -2°C° 0 mm 3 mps 735 mmHg 89%
    01:00 -2°C° 0 mm 2 mps 735 mmHg 91%
    02:00 -2°C° 0 mm 2 mps 735 mmHg 92%
    03:00 -2°C° 0 mm 2 mps 736 mmHg 93%
    04:00 -2°C° 0 mm 2 mps 736 mmHg 93%
    05:00 -2°C° 0 mm 2 mps 736 mmHg 94%
    06:00 -2°C° 0 mm 2 mps 736 mmHg 94%
    07:00 -2°C° 0 mm 2 mps 737 mmHg 94%
    08:00 -2°C° 0 mm 2 mps 737 mmHg 92%
    09:00 -1°C° 0 mm 2 mps 738 mmHg 90%
    10:00 -1°C° 0 mm 2 mps 738 mmHg 87%
    11:00 -1°C° 0 mm 2 mps 739 mmHg 86%
    12:00 +2°C° 0 mm 1 mps 739 mmHg 84%
    13:00 +2°C° 0 mm 1 mps 739 mmHg 82%
    14:00 +2°C° 0 mm 1 mps 740 mmHg 85%
    15:00 +1°C° 0 mm 1 mps 740 mmHg 89%
    16:00 0°C° 0 mm 1 mps 741 mmHg 92%
    17:00 0°C° 0 mm 1 mps 741 mmHg 92%
    18:00 0°C° 0 mm 1 mps 741 mmHg 93%
    19:00 0°C° 0 mm 1 mps 742 mmHg 93%
    20:00 0°C° 0 mm 1 mps 742 mmHg 93%
    21:00 0°C° 0 mm 1 mps 743 mmHg 93%
    22:00 0°C° 0 mm 1 mps 743 mmHg 93%
    23:00 0°C° 0 mm 1 mps 743 mmHg 93%

    12 December, Wednesday

    Time Temperature Precipitation Wind Pressure Humidity
    00:00 0°C° 0 mm 1 mps 744 mmHg 93%
    01:00 -1°C° 0 mm 1 mps 744 mmHg 93%
    02:00 -1°C° 0 mm 1 mps 744 mmHg 93%
    03:00 -1°C° 0 mm 1 mps 745 mmHg 93%
    04:00 -1°C° 0 mm 1 mps 745 mmHg 93%
    05:00 -1°C° 0 mm 1 mps 745 mmHg 93%
    06:00 -1°C° 0 mm 1 mps 745 mmHg 93%
    07:00 -1°C° 0 mm 1 mps 746 mmHg 93%
    08:00 -1°C° 0 mm 1 mps 746 mmHg 92%
    09:00 0°C° 0 mm 1 mps 746 mmHg 90%
    10:00 0°C° 0 mm 1 mps 747 mmHg 88%
    11:00 0°C° 0 mm 1 mps 747 mmHg 87%
    12:00 +1°C° 0 mm 1 mps 747 mmHg 86%
    13:00 -1°C° 0 mm 2 mps 747 mmHg 85%
    14:00 -1°C° 0 mm 2 mps 747 mmHg 88%
    15:00 -2°C° 0 mm 2 mps 748 mmHg 91%
    16:00 -2°C° 0 mm 2 mps 748 mmHg 94%
    17:00 -2°C° 0 mm 2 mps 748 mmHg 94%
    18:00 -2°C° 0 mm 2 mps 748 mmHg 94%
    19:00 -2°C° 0 mm 3 mps 748 mmHg 94%
    20:00 -2°C° 0 mm 3 mps 748 mmHg 94%
    21:00 -2°C° 0 mm 3 mps 748 mmHg 93%
    22:00 -2°C° 0 mm 3 mps 749 mmHg 93%
    23:00 -2°C° 0 mm 3 mps 749 mmHg 92%

    13 December, Thursday

    Time Temperature Precipitation Wind Pressure Humidity
    00:00 -2°C° 0 mm 3 mps 749 mmHg 91%
    01:00 -2°C° 0 mm 3 mps 749 mmHg 91%
    02:00 -2°C° 0 mm 3 mps 749 mmHg 90%
    03:00 -2°C° 0 mm 3 mps 749 mmHg 90%
    04:00 -2°C° 0 mm 3 mps 748 mmHg 90%
    05:00 -2°C° 0 mm 3 mps 748 mmHg 90%
    06:00 -3°C° 0 mm 4 mps 748 mmHg 89%
    07:00 -3°C° 0 mm 4 mps 748 mmHg 88%
    08:00 -3°C° 0 mm 4 mps 748 mmHg 86%
    09:00 -3°C° 0 mm 4 mps 748 mmHg 84%
    10:00 -3°C° 0 mm 4 mps 748 mmHg 83%
    11:00 -2°C° 0 mm 4 mps 748 mmHg 81%
    12:00 -2°C° 0 mm 4 mps 748 mmHg 80%
    13:00 -2°C° 0 mm 4 mps 748 mmHg 78%
    14:00 -1°C° 0 mm 3 mps 748 mmHg 80%
    15:00 -2°C° 0 mm 3 mps 748 mmHg 81%
    16:00 -2°C° 0 mm 3 mps 747 mmHg 82%
    17:00 -2°C° 0 mm 3 mps 747 mmHg 83%
    18:00 -2°C° 0 mm 3 mps 747 mmHg 85%
    19:00 -4°C° 0 mm 3 mps 747 mmHg 86%
    20:00 -4°C° 0 mm 3 mps 747 mmHg 87%
    21:00 -4°C° 0 mm 3 mps 747 mmHg 88%
    22:00 -3°C° 0 mm 2 mps 748 mmHg 88%
    23:00 -3°C° 0 mm 2 mps 748 mmHg 88%

    14 December, Friday

    Time Temperature Precipitation Wind Pressure Humidity
    00:00 -2°C° 0 mm 2 mps 748 mmHg 88%
    01:00 -2°C° 0 mm 2 mps 748 mmHg 88%
    02:00 -2°C° 0 mm 2 mps 747 mmHg 88%
    03:00 -2°C° 0 mm 2 mps 747 mmHg 89%
    04:00 -2°C° 0 mm 2 mps 747 mmHg 90%
    05:00 -2°C° 0 mm 2 mps 748 mmHg 90%
    06:00 -2°C° 0 mm 2 mps 748 mmHg 91%
    07:00 -2°C° 0 mm 2 mps 748 mmHg 91%
    08:00 -2°C° 0 mm 2 mps 748 mmHg 89%
    09:00 -2°C° 0 mm 2 mps 748 mmHg 87%
    10:00 -2°C° 0 mm 2 mps 748 mmHg 84%
    11:00 -2°C° 0 mm 2 mps 748 mmHg 83%
    12:00 -1°C° 0 mm 2 mps 748 mmHg 82%
    13:00 -1°C° 0 mm 2 mps 748 mmHg 81%
    14:00 -2°C° 0 mm 2 mps 748 mmHg 83%
    15:00 -2°C° 0 mm 2 mps 748 mmHg 86%
    16:00 -2°C° 0 mm 2 mps 748 mmHg 89%
    17:00 -2°C° 0 mm 2 mps 748 mmHg 89%
    18:00 -3°C° 0 mm 2 mps 748 mmHg 89%
    19:00 -3°C° 0 mm 2 mps 748 mmHg 89%
    20:00 -3°C° 0 mm 2 mps 748 mmHg 90%
    21:00 -3°C° 0 mm 2 mps 748 mmHg 91%
    22:00 -3°C° 0 mm 2 mps 748 mmHg 92%
    23:00 -4°C° 0 mm 2 mps 749 mmHg 91%
    Show more